NOAA 16 DEB, 41706

Orbit data source: Space-Track

NOAA 16 DEB, 41706 is space debris in SSO originally from a launch on Thu, 21 Sep 2000 UTC launched from the Air Force Western Test Range (AFWTR). Debris objects in space refer to the collection of defunct objects orbiting the Earth. Examples of debris include non-operational satellites, rocket bodies, and fragments generated from explosions, collisions, or faulty payload assembly.

Loading next visibility...
Identifier
41706, 2000-055PL
Orbit
SSO
Country
Flag of USUS
Related business
Manufacturer
Unknown
Mission
Spacecraft
Bus & Motor
Unknown
Mass
Unknown
Launch date (UTC)
2000-09-21 (25 years ago)
Launch vehicle
Unknown
Launch site
Air Force Western Test Range (AFWTR)
Object type
Payload
Rocket body
Debris
Shape & HBR
Unknown shape, 0.1 m
Radar Cross Section
Small (<0.1 m²)

Expand to show TLE details & history
Last TLE update: 3 days ago

TLE from 3 days ago
0 NOAA 16 DEB
1 41706U 00055PL  25339.36231192  .00004841  00000-0  24777-2 0  9993
2 41706  98.6892   8.0437 0033784  37.9879 322.3669 14.15644012501726
Epoch: 2025-12-05T08:41Z
TLE epoch observation values (Epoch: 2025-12-05T08:41:43.749Z)
Latitude
-0.00003°
Longitude
163.20593°
Altitude
823.746 km
Speed
7.451 km/s
True Right ascension
00h 32m 10s
True Declination
0° 00' 00"
Sunlit
Object was in daylight at epoch
Visualization orbit readout
Latitude
Unknown
Longitude
Unknown
Altitude
Unknown
Speed
Unknown
Apparent Right ascension
Unknown
Apparent Declination
Unknown
Sunlit
N/A
Visualization observer readout
Local Sidereal Time
01:32:36
Azimuth
Unknown
Elevation
Unknown
Doppler factor
Unknown
Orbital elements
Apogee altitude
861.662 km
Perigee altitude
812.909 km
Semi-major axis
7,215.423 km
Eccentricity
0.00338
Inclination
98.6892°
RAAN
8.0437°
Arg. of periapsis
37.9879°
True anomaly
322.12972°
Mean anomaly
322.3669°
Eccentric anomaly
322.24839°
Mean motion
3.5412 °/min
Orbital period
101.66 mins
BSTAR
0.0024777
Loading maneuver chart data...
Computing Atmospheric mass density...
Loading historical data...
Loading historical data...
Loading historical data...
Loading historical data...
Loading historical data...
Loading historical data...
Loading historical data...

Documentation

Showing up to 5 results
|